Time,TemperatureF,DewpointF,PressureIn,WindDirection,WindDirectionDegrees,WindSpeedMPH,WindSpeedGustMPH,Humidity,HourlyPrecipIn,Conditions,Clouds,dailyrainin,SoftwareType,DateUTC
2013-03-25 00:00:00,71.4,68.0,29.85,WNW,292,2.5,2.5,89,0.00,,---,0.00,VWS V14.01,2013-03-25 04:00:00,
2013-03-25 00:02:00,71.2,67.8,29.85,ENE,68,0.0,1.6,89,0.00,,---,0.00,VWS V14.01,2013-03-25 04:02:00,
2013-03-25 00:04:00,71.2,67.8,29.85,ENE,68,0.0,0.0,89,0.00,,---,0.00,VWS V14.01,2013-03-25 04:04:00,
2013-03-25 00:08:00,71.2,67.5,29.85,NW,315,2.9,3.8,88,0.00,,---,0.00,VWS V14.01,2013-03-25 04:08:00,
2013-03-25 00:13:00,71.1,67.3,29.85,ENE,68,1.1,1.1,88,0.00,,---,0.00,VWS V14.01,2013-03-25 04:13:00,
2013-03-25 00:18:00,71.1,67.3,29.85,SSW,202,0.0,1.3,88,0.00,,---,0.00,VWS V14.01,2013-03-25 04:18:00,
2013-03-25 00:23:00,70.9,67.2,29.85,SW,225,1.1,1.1,88,0.00,,---,0.00,VWS V14.01,2013-03-25 04:23:00,
2013-03-25 00:28:00,70.9,67.2,29.85,SW,225,1.1,1.1,88,0.00,,---,0.00,VWS V14.01,2013-03-25 04:28:00,
2013-03-25 00:33:00,70.7,67.0,29.85,SSE,158,0.0,0.0,88,0.00,,---,0.00,VWS V14.01,2013-03-25 04:33:00,
2013-03-25 00:38:00,70.5,66.8,29.85,West,270,0.0,0.0,88,0.00,,---,0.00,VWS V14.01,2013-03-25 04:38:00,
2013-03-25 00:43:00,70.5,66.8,29.85,SSE,158,0.0,0.0,88,0.00,,---,0.00,VWS V14.01,2013-03-25 04:43:00,
2013-03-25 00:49:00,70.3,66.3,29.85,WSW,248,0.0,0.0,87,0.00,,---,0.00,VWS V14.01,2013-03-25 04:49:00,
2013-03-25 00:54:00,70.2,66.1,29.85,SSW,202,0.0,0.0,87,0.00,,---,0.00,VWS V14.01,2013-03-25 04:54:00,
2013-03-25 01:00:00,70.2,66.1,29.85,WSW,248,0.0,0.0,87,0.00,,---,0.00,VWS V14.01,2013-03-25 05:00:00,
2013-03-25 01:05:00,70.0,65.9,29.85,SW,225,0.0,0.0,87,0.00,,---,0.00,VWS V14.01,2013-03-25 05:05:00,
2013-03-25 01:10:00,70.0,65.9,29.85,WSW,248,0.0,0.0,87,0.00,,---,0.00,VWS V14.01,2013-03-25 05:10:00,
2013-03-25 01:15:00,70.0,65.9,29.85,WSW,248,0.0,0.0,87,0.00,,---,0.00,VWS V14.01,2013-03-25 05:15:00,
2013-03-25 01:21:00,70.0,65.9,29.85,WSW,248,0.0,0.0,87,0.00,,---,0.00,VWS V14.01,2013-03-25 05:21:00,
2013-03-25 01:27:00,70.0,65.9,29.85,North,0,0.0,0.0,87,0.00,,---,0.00,VWS V14.01,2013-03-25 05:27:00,
2013-03-25 01:34:00,70.0,65.9,29.85,WSW,248,2.5,2.7,87,0.00,,---,0.00,VWS V14.01,2013-03-25 05:34:00,
2013-03-25 01:39:00,70.0,65.9,29.85,WNW,292,2.5,2.5,87,0.00,,---,0.00,VWS V14.01,2013-03-25 05:39:00,
2013-03-25 01:45:00,70.0,65.6,29.85,West,270,4.3,4.3,86,0.00,,---,0.00,VWS V14.01,2013-03-25 05:45:00,
2013-03-25 01:50:00,69.8,65.4,29.85,ENE,68,0.0,0.9,86,0.00,,---,0.00,VWS V14.01,2013-03-25 05:50:00,
2013-03-25 01:57:00,69.8,65.4,29.85,NW,315,2.7,2.7,86,0.00,,---,0.00,VWS V14.01,2013-03-25 05:57:00,
2013-03-25 02:03:00,69.8,65.1,29.85,WNW,292,2.7,2.7,85,0.00,,---,0.00,VWS V14.01,2013-03-25 06:03:00,
2013-03-25 02:08:00,69.6,65.2,29.85,West,270,2.5,2.5,86,0.00,,---,0.00,VWS V14.01,2013-03-25 06:08:00,
2013-03-25 02:13:00,69.6,65.2,29.85,NNE,22,2.9,2.9,86,0.00,,---,0.00,VWS V14.01,2013-03-25 06:13:00,
2013-03-25 02:19:00,69.6,64.9,29.85,WSW,248,2.9,3.6,85,0.00,,---,0.00,VWS V14.01,2013-03-25 06:19:00,
2013-03-25 02:24:00,69.4,64.7,29.85,SW,225,0.0,2.0,85,0.00,,---,0.00,VWS V14.01,2013-03-25 06:24:00,
2013-03-25 02:29:00,69.4,64.7,29.85,NW,315,2.9,2.9,85,0.00,,---,0.00,VWS V14.01,2013-03-25 06:29:00,
2013-03-25 02:34:00,69.4,64.7,29.85,WNW,292,3.4,3.4,85,0.00,,---,0.00,VWS V14.01,2013-03-25 06:34:00,
2013-03-25 02:39:00,69.3,64.2,29.85,NNW,338,7.8,7.8,84,0.00,,---,0.00,VWS V14.01,2013-03-25 06:39:00,
2013-03-25 02:44:00,69.3,64.2,29.85,North,0,3.8,6.0,84,0.00,,---,0.00,VWS V14.01,2013-03-25 06:44:00,
2013-03-25 02:49:00,69.3,63.9,29.88,WSW,248,3.6,4.9,83,0.00,,---,0.00,VWS V14.01,2013-03-25 06:49:00,
2013-03-25 02:54:00,69.3,63.9,29.88,SW,225,4.0,4.0,83,0.00,,---,0.00,VWS V14.01,2013-03-25 06:54:00,
2013-03-25 02:59:00,69.3,63.9,29.88,WSW,248,3.6,4.0,83,0.00,,---,0.00,VWS V14.01,2013-03-25 06:59:00,
2013-03-25 03:05:00,69.1,63.4,29.85,NW,315,1.3,6.0,82,0.00,,---,0.00,VWS V14.01,2013-03-25 07:05:00,
2013-03-25 03:10:00,69.1,63.4,29.85,SE,135,0.9,0.9,82,0.00,,---,0.00,VWS V14.01,2013-03-25 07:10:00,
2013-03-25 03:15:00,69.1,63.4,29.88,NNE,22,2.0,2.5,82,0.00,,---,0.00,VWS V14.01,2013-03-25 07:15:00,
2013-03-25 03:20:00,69.1,63.4,29.88,West,270,4.7,4.7,82,0.00,,---,0.00,VWS V14.01,2013-03-25 07:20:00,
2013-03-25 03:25:00,69.1,63.0,29.88,SSE,158,1.6,2.7,81,0.00,,---,0.00,VWS V14.01,2013-03-25 07:25:00,
2013-03-25 03:30:00,69.1,63.0,29.85,WNW,292,1.1,2.5,81,0.00,,---,0.00,VWS V14.01,2013-03-25 07:30:00,
2013-03-25 03:35:00,69.1,63.0,29.85,West,270,3.6,3.6,81,0.00,,---,0.00,VWS V14.01,2013-03-25 07:35:00,
2013-03-25 03:41:00,68.9,62.8,29.85,NW,315,2.9,3.4,81,0.00,,---,0.00,VWS V14.01,2013-03-25 07:41:00,
2013-03-25 03:46:00,68.9,62.8,29.88,NNW,338,2.2,4.0,81,0.00,,---,0.00,VWS V14.01,2013-03-25 07:46:00,
2013-03-25 03:51:00,68.9,62.8,29.88,NNW,338,4.9,4.9,81,0.00,,---,0.00,VWS V14.01,2013-03-25 07:51:00,
2013-03-25 03:57:00,68.9,62.8,29.88,WNW,292,2.9,3.1,81,0.00,,---,0.00,VWS V14.01,2013-03-25 07:57:00,
2013-03-25 04:02:00,68.7,62.7,29.88,North,0,2.0,3.1,81,0.00,,---,0.00,VWS V14.01,2013-03-25 08:02:00,
2013-03-25 04:07:00,68.7,62.7,29.88,WSW,248,3.6,7.8,81,0.00,,---,0.00,VWS V14.01,2013-03-25 08:07:00,
2013-03-25 04:12:00,68.7,62.7,29.88,WNW,292,4.7,4.7,81,0.00,,---,0.00,VWS V14.01,2013-03-25 08:12:00,
2013-03-25 04:17:00,68.5,62.5,29.88,West,270,4.0,5.8,81,0.00,,---,0.00,VWS V14.01,2013-03-25 08:17:00,
2013-03-25 04:22:00,68.5,62.5,29.88,North,0,3.6,4.0,81,0.00,,---,0.00,VWS V14.01,2013-03-25 08:22:00,
2013-03-25 04:28:00,68.4,62.3,29.88,West,270,6.3,6.3,81,0.00,,---,0.00,VWS V14.01,2013-03-25 08:28:00,
2013-03-25 04:34:00,68.2,61.8,29.88,North,0,5.6,5.6,80,0.00,,---,0.00,VWS V14.01,2013-03-25 08:34:00,
2013-03-25 04:39:00,68.0,60.9,29.88,West,270,4.3,7.8,78,0.00,,---,0.00,VWS V14.01,2013-03-25 08:39:00,
2013-03-25 04:44:00,67.8,60.7,29.88,NNW,338,5.4,5.4,78,0.00,,---,0.00,VWS V14.01,2013-03-25 08:44:00,
2013-03-25 04:49:00,67.6,60.5,29.88,NNW,338,8.5,8.5,78,0.00,,---,0.00,VWS V14.01,2013-03-25 08:49:00,
2013-03-25 04:54:00,67.5,60.4,29.88,NW,315,10.3,10.3,78,0.00,,---,0.00,VWS V14.01,2013-03-25 08:54:00,
2013-03-25 04:59:00,67.3,59.8,29.88,SW,225,3.6,4.3,77,0.00,,---,0.00,VWS V14.01,2013-03-25 08:59:00,
2013-03-25 05:05:00,67.3,59.8,29.88,NW,315,4.3,4.7,77,0.00,,---,0.00,VWS V14.01,2013-03-25 09:05:00,
2013-03-25 05:10:00,67.1,59.7,29.88,WNW,292,5.6,7.4,77,0.00,,---,0.00,VWS V14.01,2013-03-25 09:10:00,
2013-03-25 05:16:00,66.9,59.1,29.88,North,0,1.3,6.3,76,0.00,,---,0.00,VWS V14.01,2013-03-25 09:16:00,
2013-03-25 05:22:00,66.7,59.3,29.88,NW,315,3.1,3.6,77,0.00,,---,0.00,VWS V14.01,2013-03-25 09:22:00,
2013-03-25 05:27:00,66.6,59.1,29.88,WNW,292,2.0,2.0,77,0.00,,---,0.00,VWS V14.01,2013-03-25 09:27:00,
2013-03-25 05:33:00,66.6,58.8,29.88,WSW,248,2.7,7.2,76,0.00,,---,0.00,VWS V14.01,2013-03-25 09:33:00,
2013-03-25 05:38:00,66.4,57.5,29.88,NNW,338,4.0,9.4,73,0.00,,---,0.00,VWS V14.01,2013-03-25 09:38:00,
2013-03-25 05:44:00,66.2,56.1,29.88,West,270,2.7,2.7,70,0.00,,---,0.00,VWS V14.01,2013-03-25 09:44:00,
2013-03-25 05:49:00,65.8,55.0,29.88,NNE,22,6.5,6.5,68,0.00,,---,0.00,VWS V14.01,2013-03-25 09:49:00,
2013-03-25 05:54:00,65.8,54.2,29.88,WSW,248,2.9,3.1,66,0.00,,---,0.00,VWS V14.01,2013-03-25 09:54:00,
2013-03-25 05:59:00,65.7,54.0,29.88,NNW,338,2.7,7.2,66,0.00,,---,0.00,VWS V14.01,2013-03-25 09:59:00,
2013-03-25 06:05:00,65.5,53.4,29.88,West,270,2.9,3.1,65,0.00,,---,0.00,VWS V14.01,2013-03-25 10:05:00,
2013-03-25 06:11:00,65.5,53.4,29.88,ENE,68,4.3,6.0,65,0.00,,---,0.00,VWS V14.01,2013-03-25 10:11:00,
2013-03-25 06:17:00,65.3,52.8,29.88,NNW,338,2.7,2.9,64,0.00,,---,0.00,VWS V14.01,2013-03-25 10:17:00,
2013-03-25 06:22:00,65.1,53.1,29.88,WNW,292,6.3,6.3,65,0.00,,---,0.00,VWS V14.01,2013-03-25 10:22:00,
2013-03-25 06:28:00,64.9,52.9,29.88,West,270,5.6,5.6,65,0.00,,---,0.00,VWS V14.01,2013-03-25 10:28:00,
2013-03-25 06:33:00,64.9,52.5,29.88,NE,45,2.5,2.5,64,0.00,,---,0.00,VWS V14.01,2013-03-25 10:33:00,
2013-03-25 06:39:00,64.8,52.3,29.88,South,180,1.1,2.0,64,0.00,,---,0.00,VWS V14.01,2013-03-25 10:39:00,
2013-03-25 06:44:00,64.6,52.1,29.88,WNW,292,2.9,4.9,64,0.00,,---,0.00,VWS V14.01,2013-03-25 10:44:00,
2013-03-25 06:50:00,64.4,52.4,29.91,WNW,292,2.7,2.7,65,0.00,,---,0.00,VWS V14.01,2013-03-25 10:50:00,
2013-03-25 06:55:00,64.4,52.4,29.91,NNW,338,3.1,6.5,65,0.00,,---,0.00,VWS V14.01,2013-03-25 10:55:00,
2013-03-25 07:01:00,64.2,52.6,29.91,WNW,292,4.3,4.7,66,0.00,,---,0.00,VWS V14.01,2013-03-25 11:01:00,
2013-03-25 07:07:00,64.2,53.0,29.91,NNW,338,2.7,5.8,67,0.00,,---,0.00,VWS V14.01,2013-03-25 11:07:00,
2013-03-25 07:12:00,64.2,53.5,29.91,WSW,248,2.0,5.6,68,0.00,,---,0.00,VWS V14.01,2013-03-25 11:12:00,
2013-03-25 07:18:00,64.2,53.5,29.91,NNW,338,3.6,4.0,68,0.00,,---,0.00,VWS V14.01,2013-03-25 11:18:00,
2013-03-25 07:23:00,64.0,53.7,29.91,North,0,6.0,6.0,69,0.00,,---,0.00,VWS V14.01,2013-03-25 11:23:00,
2013-03-25 07:28:00,64.0,53.7,29.91,NNE,22,3.8,3.8,69,0.00,,---,0.00,VWS V14.01,2013-03-25 11:28:00,
2013-03-25 07:34:00,63.9,53.1,29.91,WNW,292,4.3,5.6,68,0.00,,---,0.00,VWS V14.01,2013-03-25 11:34:00,
2013-03-25 07:39:00,63.9,52.7,29.91,ENE,68,6.3,6.3,67,0.00,,---,0.00,VWS V14.01,2013-03-25 11:39:00,
2013-03-25 07:45:00,63.7,51.3,29.91,NNW,338,2.5,7.2,64,0.00,,---,0.00,VWS V14.01,2013-03-25 11:45:00,
2013-03-25 07:50:00,63.5,50.7,29.91,NNE,22,3.8,3.8,63,0.00,,---,0.00,VWS V14.01,2013-03-25 11:50:00,
2013-03-25 07:55:00,63.5,50.7,29.91,NNW,338,3.8,9.4,63,0.00,,---,0.00,VWS V14.01,2013-03-25 11:55:00,
2013-03-25 08:00:00,63.5,50.3,29.91,NW,315,2.9,9.8,62,0.00,,---,0.00,VWS V14.01,2013-03-25 12:00:00,
2013-03-25 08:05:00,63.3,49.7,29.91,NW,315,4.7,6.3,61,0.00,,---,0.00,VWS V14.01,2013-03-25 12:05:00,
2013-03-25 08:10:00,63.5,50.3,29.91,North,0,8.1,8.1,62,0.00,,---,0.00,VWS V14.01,2013-03-25 12:10:00,
2013-03-25 08:15:00,63.3,50.1,29.94,WNW,292,4.0,4.0,62,0.00,,---,0.00,VWS V14.01,2013-03-25 12:15:00,
2013-03-25 08:20:00,63.5,50.3,29.94,North,0,3.4,3.6,62,0.00,,---,0.00,VWS V14.01,2013-03-25 12:20:00,
2013-03-25 08:25:00,63.5,49.8,29.94,NW,315,2.9,5.6,61,0.00,,---,0.00,VWS V14.01,2013-03-25 12:25:00,
2013-03-25 08:30:00,63.5,49.8,29.97,NNE,22,4.0,10.7,61,0.00,,---,0.00,VWS V14.01,2013-03-25 12:30:00,
2013-03-25 08:35:00,63.5,49.8,29.97,NNW,338,6.0,10.1,61,0.00,,---,0.00,VWS V14.01,2013-03-25 12:35:00,
2013-03-25 08:40:00,63.5,49.4,29.97,North,0,5.6,5.6,60,0.00,,---,0.00,VWS V14.01,2013-03-25 12:40:00,
2013-03-25 08:46:00,63.7,49.1,29.94,NNW,338,7.4,9.6,59,0.00,,---,0.00,VWS V14.01,2013-03-25 12:46:00,
2013-03-25 08:51:00,63.9,48.8,29.94,NNW,338,2.5,7.4,58,0.00,,---,0.00,VWS V14.01,2013-03-25 12:51:00,
2013-03-25 08:56:00,63.9,48.3,29.94,NNE,22,5.4,5.4,57,0.00,,---,0.00,VWS V14.01,2013-03-25 12:56:00,
2013-03-25 09:02:00,64.0,48.0,29.97,NNW,338,3.8,3.8,56,0.00,,---,0.00,VWS V14.01,2013-03-25 13:02:00,
2013-03-25 09:07:00,64.2,48.2,29.97,NW,315,5.8,5.8,56,0.00,,---,0.00,VWS V14.01,2013-03-25 13:07:00,
2013-03-25 09:12:00,64.6,48.1,29.97,WNW,292,3.4,11.2,55,0.00,,---,0.00,VWS V14.01,2013-03-25 13:12:00,
2013-03-25 09:17:00,64.8,47.8,29.97,North,0,8.5,8.5,54,0.00,,---,0.00,VWS V14.01,2013-03-25 13:17:00,
2013-03-25 09:22:00,64.9,47.9,29.97,NNE,22,4.0,6.5,54,0.00,,---,0.00,VWS V14.01,2013-03-25 13:22:00,
2013-03-25 09:27:00,65.1,47.6,29.97,North,0,6.3,6.5,53,0.00,,---,0.00,VWS V14.01,2013-03-25 13:27:00,
2013-03-25 09:32:00,65.1,47.1,29.97,North,0,3.6,3.6,52,0.00,,---,0.00,VWS V14.01,2013-03-25 13:32:00,
2013-03-25 09:38:00,65.5,46.9,29.97,North,0,4.3,6.3,51,0.00,,---,0.00,VWS V14.01,2013-03-25 13:38:00,
2013-03-25 09:43:00,65.7,46.5,29.97,North,0,7.2,7.2,50,0.00,,---,0.00,VWS V14.01,2013-03-25 13:43:00,
2013-03-25 09:48:00,65.8,46.2,30.00,NNW,338,5.6,5.6,49,0.00,,---,0.00,VWS V14.01,2013-03-25 13:48:00,
2013-03-25 09:53:00,66.0,45.8,30.00,NNW,338,6.5,6.5,48,0.00,,---,0.00,VWS V14.01,2013-03-25 13:53:00,
2013-03-25 09:59:00,66.2,45.4,30.00,NNE,22,4.0,5.6,47,0.00,,---,0.00,VWS V14.01,2013-03-25 13:59:00,
2013-03-25 10:05:00,66.4,45.6,30.00,NNE,22,4.9,4.9,47,0.00,,---,0.00,VWS V14.01,2013-03-25 14:05:00,
2013-03-25 10:10:00,66.7,45.9,30.00,North,0,7.8,11.0,47,0.00,,---,0.00,VWS V14.01,2013-03-25 14:10:00,
2013-03-25 10:15:00,66.9,46.0,30.03,NNE,22,2.9,6.0,47,0.00,,---,0.00,VWS V14.01,2013-03-25 14:15:00,
2013-03-25 10:20:00,67.1,46.2,30.03,NNW,338,4.0,4.9,47,0.00,,---,0.00,VWS V14.01,2013-03-25 14:20:00,
2013-03-25 10:27:00,67.6,47.3,30.03,NE,45,2.7,5.4,48,0.00,,---,0.00,VWS V14.01,2013-03-25 14:27:00,
2013-03-25 10:33:00,67.8,45.7,30.03,NNE,22,4.9,9.8,45,0.00,,---,0.00,VWS V14.01,2013-03-25 14:33:00,
2013-03-25 10:39:00,67.8,45.1,30.03,NW,315,3.8,8.5,44,0.00,,---,0.00,VWS V14.01,2013-03-25 14:39:00,
2013-03-25 10:44:00,68.2,44.2,30.03,NNE,22,15.2,15.2,42,0.00,,---,0.00,VWS V14.01,2013-03-25 14:44:00,
2013-03-25 10:49:00,68.4,44.4,30.03,ENE,68,3.8,9.8,42,0.00,,---,0.00,VWS V14.01,2013-03-25 14:49:00,
2013-03-25 10:56:00,68.5,43.9,30.03,NNW,338,4.9,5.8,41,0.00,,---,0.00,VWS V14.01,2013-03-25 14:56:00,
2013-03-25 11:01:00,68.9,44.2,30.03,North,0,8.5,8.5,41,0.00,,---,0.00,VWS V14.01,2013-03-25 15:01:00,
2013-03-25 11:06:00,69.1,44.4,30.03,NNW,338,7.8,7.8,41,0.00,,---,0.00,VWS V14.01,2013-03-25 15:06:00,
2013-03-25 11:11:00,69.1,41.7,30.03,SW,225,2.9,8.5,37,0.00,,---,0.00,VWS V14.01,2013-03-25 15:11:00,
2013-03-25 11:17:00,68.9,41.6,30.03,NNE,22,7.6,15.2,37,0.00,,---,0.00,VWS V14.01,2013-03-25 15:17:00,
2013-03-25 11:22:00,69.1,42.4,30.03,NW,315,7.4,7.4,38,0.00,,---,0.00,VWS V14.01,2013-03-25 15:22:00,
2013-03-25 11:27:00,69.1,42.4,30.03,NE,45,6.9,7.8,38,0.00,,---,0.00,VWS V14.01,2013-03-25 15:27:00,
2013-03-25 11:32:00,69.3,43.3,30.03,NNE,22,11.0,11.0,39,0.00,,---,0.00,VWS V14.01,2013-03-25 15:32:00,
2013-03-25 11:37:00,69.3,41.9,30.03,North,0,3.8,10.1,37,0.00,,---,0.00,VWS V14.01,2013-03-25 15:37:00,
2013-03-25 11:42:00,69.4,42.1,30.03,NNE,22,1.3,2.7,37,0.00,,---,0.00,VWS V14.01,2013-03-25 15:42:00,
2013-03-25 11:48:00,69.8,42.4,30.03,NNW,338,3.6,12.1,37,0.00,,---,0.00,VWS V14.01,2013-03-25 15:48:00,
2013-03-25 11:55:00,69.8,41.7,30.03,WSW,248,2.9,8.1,36,0.00,,---,0.00,VWS V14.01,2013-03-25 15:55:00,
2013-03-25 12:00:00,70.0,41.1,30.03,North,0,8.7,8.7,35,0.00,,---,0.00,VWS V14.01,2013-03-25 16:00:00,
2013-03-25 12:05:00,70.0,41.1,30.03,NNW,338,5.8,5.8,35,0.00,,---,0.00,VWS V14.01,2013-03-25 16:05:00,
2013-03-25 12:10:00,70.0,41.1,30.03,NNW,338,5.8,5.8,35,0.00,,---,0.00,VWS V14.01,2013-03-25 16:10:00,
2013-03-25 12:15:00,70.0,41.1,30.06,NNW,338,5.8,5.8,35,0.00,,---,0.00,VWS V14.01,2013-03-25 16:15:00,
2013-03-25 12:20:00,70.0,41.1,30.06,NNW,338,5.8,5.8,35,0.00,,---,0.00,VWS V14.01,2013-03-25 16:20:00,
2013-03-25 12:26:00,70.0,41.1,30.06,NNW,338,5.8,5.8,35,0.00,,---,0.00,VWS V14.01,2013-03-25 16:26:00,
2013-03-25 12:32:00,70.0,41.1,30.03,NNW,338,5.8,5.8,35,0.00,,---,0.00,VWS V14.01,2013-03-25 16:32:00,
2013-03-25 12:37:00,70.0,41.1,30.03,NNW,338,5.8,5.8,35,0.00,,---,0.00,VWS V14.01,2013-03-25 16:37:00,
2013-03-25 12:43:00,70.0,41.1,30.03,NNW,338,5.8,5.8,35,0.00,,---,0.00,VWS V14.01,2013-03-25 16:43:00,
2013-03-25 12:49:00,70.0,41.1,30.03,NNW,338,5.8,5.8,35,0.00,,---,0.00,VWS V14.01,2013-03-25 16:49:00,
2013-03-25 12:54:00,70.0,41.1,30.03,NNW,338,5.8,5.8,35,0.00,,---,0.00,VWS V14.01,2013-03-25 16:54:00,
2013-03-25 12:59:00,70.0,41.1,30.03,NNW,338,5.8,5.8,35,0.00,,---,0.00,VWS V14.01,2013-03-25 16:59:00,
2013-03-25 13:05:00,70.0,41.1,30.03,NNW,338,5.8,5.8,35,0.00,,---,0.00,VWS V14.01,2013-03-25 17:05:00,
2013-03-25 13:10:00,70.0,41.1,30.03,NNW,338,5.8,5.8,35,0.00,,---,0.00,VWS V14.01,2013-03-25 17:10:00,
2013-03-25 13:15:00,70.0,41.1,30.03,NNW,338,5.8,5.8,35,0.00,,---,0.00,VWS V14.01,2013-03-25 17:15:00,
2013-03-25 13:21:00,70.0,41.1,30.03,NNW,338,5.8,5.8,35,0.00,,---,0.00,VWS V14.01,2013-03-25 17:21:00,
2013-03-25 13:27:00,72.7,41.2,30.03,NNW,338,5.8,5.8,32,0.00,,---,0.00,VWS V14.01,2013-03-25 17:27:00,
2013-03-25 13:32:00,72.7,41.2,30.03,NNW,338,5.8,5.8,32,0.00,,---,0.00,VWS V14.01,2013-03-25 17:32:00,
2013-03-25 13:38:00,72.7,41.2,30.03,NNW,338,5.8,5.8,32,0.00,,---,0.00,VWS V14.01,2013-03-25 17:38:00,
2013-03-25 13:43:00,72.7,41.2,30.03,NNW,338,5.8,5.8,32,0.00,,---,0.00,VWS V14.01,2013-03-25 17:43:00,
2013-03-25 14:13:00,73.9,41.4,30.03,NNE,22,5.4,5.4,31,0.00,,---,0.00,VWS V14.01,2013-03-25 18:13:00,
2013-03-25 14:19:00,74.1,41.6,30.03,WNW,292,9.8,9.8,31,0.00,,---,0.00,VWS V14.01,2013-03-25 18:19:00,
2013-03-25 14:24:00,73.6,41.9,30.03,NE,45,3.4,7.4,32,0.00,,---,0.00,VWS V14.01,2013-03-25 18:24:00,
2013-03-25 14:29:00,73.8,42.1,30.03,WNW,292,4.7,7.8,32,0.00,,---,0.00,VWS V14.01,2013-03-25 18:29:00,
2013-03-25 14:34:00,73.6,41.9,30.03,ENE,68,4.0,4.0,32,0.00,,---,0.00,VWS V14.01,2013-03-25 18:34:00,
2013-03-25 14:40:00,73.6,41.9,30.03,WNW,292,9.8,9.8,32,0.00,,---,0.00,VWS V14.01,2013-03-25 18:40:00,
2013-03-25 14:46:00,73.2,41.6,30.03,SSW,202,3.6,3.6,32,0.00,,---,0.00,VWS V14.01,2013-03-25 18:46:00,
2013-03-25 14:51:00,73.6,41.9,30.03,SSW,202,3.6,3.6,32,0.00,,---,0.00,VWS V14.01,2013-03-25 18:51:00,
2013-03-25 14:57:00,73.2,40.8,30.03,NNE,22,8.5,8.5,31,0.00,,---,0.00,VWS V14.01,2013-03-25 18:57:00,
2013-03-25 15:02:00,73.2,40.8,30.03,NNW,338,13.0,13.0,31,0.00,,---,0.00,VWS V14.01,2013-03-25 19:02:00,
2013-03-25 15:07:00,73.2,40.8,30.03,NNW,338,13.0,13.0,31,0.00,,---,0.00,VWS V14.01,2013-03-25 19:07:00,
2013-03-25 15:12:00,73.2,40.8,30.03,NNW,338,13.0,13.0,31,0.00,,---,0.00,VWS V14.01,2013-03-25 19:12:00,
2013-03-25 15:18:00,73.2,40.8,30.03,NNW,338,13.0,13.0,31,0.00,,---,0.00,VWS V14.01,2013-03-25 19:18:00,
2013-03-25 15:24:00,73.2,40.8,30.03,NNW,338,13.0,13.0,31,0.00,,---,0.00,VWS V14.01,2013-03-25 19:24:00,
2013-03-25 15:29:00,73.2,40.8,30.03,NNW,338,13.0,13.0,31,0.00,,---,0.00,VWS V14.01,2013-03-25 19:29:00,
2013-03-25 15:34:00,73.2,40.8,30.03,NNW,338,13.0,13.0,31,0.00,,---,0.00,VWS V14.01,2013-03-25 19:34:00,
2013-03-25 15:39:00,72.5,38.5,30.03,NW,315,12.8,12.8,29,0.00,,---,0.00,VWS V14.01,2013-03-25 19:39:00,
2013-03-25 15:44:00,72.1,38.2,30.03,WNW,292,3.1,6.3,29,0.00,,---,0.00,VWS V14.01,2013-03-25 19:44:00,
2013-03-25 15:49:00,72.3,38.3,30.03,NNW,338,8.1,8.1,29,0.00,,---,0.00,VWS V14.01,2013-03-25 19:49:00,
2013-03-25 15:54:00,72.3,38.3,30.03,NNW,338,8.1,8.1,29,0.00,,---,0.00,VWS V14.01,2013-03-25 19:54:00,
2013-03-25 16:00:00,72.3,38.3,30.03,NNW,338,8.1,8.1,29,0.00,,---,0.00,VWS V14.01,2013-03-25 20:00:00,
2013-03-25 16:05:00,72.3,38.3,30.03,NNW,338,8.1,8.1,29,0.00,,---,0.00,VWS V14.01,2013-03-25 20:05:00,
2013-03-25 16:10:00,72.1,37.3,30.03,NW,315,2.7,3.4,28,0.00,,---,0.00,VWS V14.01,2013-03-25 20:10:00,
2013-03-25 16:15:00,72.1,37.3,30.03,NNE,22,2.5,10.5,28,0.00,,---,0.00,VWS V14.01,2013-03-25 20:15:00,
2013-03-25 16:21:00,71.8,35.1,30.03,NNE,22,10.5,10.5,26,0.00,,---,0.00,VWS V14.01,2013-03-25 20:21:00,
2013-03-25 16:26:00,71.6,34.9,30.03,NNE,22,9.8,9.8,26,0.00,,---,0.00,VWS V14.01,2013-03-25 20:26:00,
2013-03-25 16:32:00,71.2,34.6,30.03,WNW,292,8.7,15.2,26,0.00,,---,0.00,VWS V14.01,2013-03-25 20:32:00,
2013-03-25 16:37:00,71.2,34.6,30.03,NNW,338,6.0,6.0,26,0.00,,---,0.00,VWS V14.01,2013-03-25 20:37:00,
2013-03-25 16:42:00,71.2,34.6,30.03,NW,315,13.4,13.4,26,0.00,,---,0.00,VWS V14.01,2013-03-25 20:42:00,
2013-03-25 16:47:00,71.2,34.6,30.03,North,0,7.6,7.6,26,0.00,,---,0.00,VWS V14.01,2013-03-25 20:47:00,
2013-03-25 16:52:00,71.1,34.5,30.03,NNE,22,10.7,10.7,26,0.00,,---,0.00,VWS V14.01,2013-03-25 20:52:00,
2013-03-25 16:57:00,71.1,33.5,30.03,NNE,22,4.0,10.5,25,0.00,,---,0.00,VWS V14.01,2013-03-25 20:57:00,
2013-03-25 17:03:00,70.9,33.3,30.03,ENE,68,3.8,12.3,25,0.00,,---,0.00,VWS V14.01,2013-03-25 21:03:00,
2013-03-25 17:08:00,70.7,33.2,30.03,NNE,22,3.4,9.6,25,0.00,,---,0.00,VWS V14.01,2013-03-25 21:08:00,
2013-03-25 17:13:00,70.3,32.9,30.03,ENE,68,3.6,11.0,25,0.00,,---,0.00,VWS V14.01,2013-03-25 21:13:00,
2013-03-25 17:18:00,70.2,32.7,30.03,West,270,3.8,8.1,25,0.00,,---,0.00,VWS V14.01,2013-03-25 21:18:00,
2013-03-25 17:23:00,70.2,32.7,30.03,NNE,22,3.1,6.5,25,0.00,,---,0.00,VWS V14.01,2013-03-25 21:23:00,
2013-03-25 17:28:00,69.8,31.4,30.03,North,0,4.7,4.7,24,0.00,,---,0.00,VWS V14.01,2013-03-25 21:28:00,
2013-03-25 17:33:00,69.8,32.4,30.03,NW,315,8.1,8.5,25,0.00,,---,0.00,VWS V14.01,2013-03-25 21:33:00,
2013-03-25 17:38:00,69.6,33.2,30.03,NE,45,5.8,7.4,26,0.00,,---,0.00,VWS V14.01,2013-03-25 21:38:00,
2013-03-25 17:43:00,69.4,33.1,30.03,North,0,2.7,4.9,26,0.00,,---,0.00,VWS V14.01,2013-03-25 21:43:00,
2013-03-25 17:48:00,69.1,32.8,30.03,North,0,4.3,6.0,26,0.00,,---,0.00,VWS V14.01,2013-03-25 21:48:00,
2013-03-25 17:53:00,69.1,32.8,30.03,NNW,338,6.0,6.0,26,0.00,,---,0.00,VWS V14.01,2013-03-25 21:53:00,
2013-03-25 17:59:00,68.9,32.6,30.03,North,0,5.4,8.5,26,0.00,,---,0.00,VWS V14.01,2013-03-25 21:59:00,
2013-03-25 18:04:00,68.9,32.6,30.03,North,0,7.6,7.6,26,0.00,,---,0.00,VWS V14.01,2013-03-25 22:04:00,
2013-03-25 18:09:00,68.9,32.6,30.03,NNE,22,4.9,7.6,26,0.00,,---,0.00,VWS V14.01,2013-03-25 22:09:00,
2013-03-25 18:14:00,68.9,32.6,30.03,NW,315,6.5,6.5,26,0.00,,---,0.00,VWS V14.01,2013-03-25 22:14:00,
2013-03-25 18:20:00,68.9,32.6,30.06,WNW,292,3.6,5.8,26,0.00,,---,0.00,VWS V14.01,2013-03-25 22:20:00,
2013-03-25 18:25:00,68.9,32.6,30.06,WNW,292,2.5,3.6,26,0.00,,---,0.00,VWS V14.01,2013-03-25 22:25:00,
2013-03-25 18:31:00,68.9,32.6,30.06,WNW,292,1.6,1.6,26,0.00,,---,0.00,VWS V14.01,2013-03-25 22:31:00,
2013-03-25 18:36:00,68.9,32.6,30.06,WSW,248,2.5,5.6,26,0.00,,---,0.00,VWS V14.01,2013-03-25 22:36:00,
2013-03-25 18:41:00,68.9,32.6,30.06,SW,225,2.7,8.5,26,0.00,,---,0.00,VWS V14.01,2013-03-25 22:41:00,
2013-03-25 18:47:00,68.9,32.6,30.06,West,270,2.2,3.4,26,0.00,,---,0.00,VWS V14.01,2013-03-25 22:47:00,
2013-03-25 18:53:00,68.9,32.6,30.06,NNW,338,4.3,4.3,26,0.00,,---,0.00,VWS V14.01,2013-03-25 22:53:00,
2013-03-25 18:58:00,68.9,32.6,30.06,NW,315,9.6,9.6,26,0.00,,---,0.00,VWS V14.01,2013-03-25 22:58:00,
2013-03-25 19:03:00,68.9,32.6,30.06,WNW,292,4.3,4.3,26,0.00,,---,0.00,VWS V14.01,2013-03-25 23:03:00,
2013-03-25 19:09:00,68.9,32.6,30.06,NNW,338,3.8,5.6,26,0.00,,---,0.00,VWS V14.01,2013-03-25 23:09:00,
2013-03-25 19:15:00,68.9,32.6,30.06,NNE,22,9.8,9.8,26,0.00,,---,0.00,VWS V14.01,2013-03-25 23:15:00,
2013-03-25 19:20:00,68.9,32.6,30.06,NNW,338,4.0,6.0,26,0.00,,---,0.00,VWS V14.01,2013-03-25 23:20:00,
2013-03-25 19:25:00,64.0,32.0,30.06,NW,315,2.0,3.6,30,0.00,,---,0.00,VWS V14.01,2013-03-25 23:25:00,
2013-03-25 19:30:00,63.5,32.3,30.06,NW,315,5.8,10.3,31,0.00,,---,0.00,VWS V14.01,2013-03-25 23:30:00,
2013-03-25 19:35:00,63.0,31.9,30.06,NNE,22,2.0,5.4,31,0.00,,---,0.00,VWS V14.01,2013-03-25 23:35:00,
2013-03-25 19:41:00,62.8,32.5,30.06,NNW,338,5.4,5.4,32,0.00,,---,0.00,VWS V14.01,2013-03-25 23:41:00,
2013-03-25 19:46:00,62.4,33.7,30.06,North,0,4.9,4.9,34,0.00,,---,0.00,VWS V14.01,2013-03-25 23:46:00,
2013-03-25 19:51:00,62.1,33.4,30.06,North,0,2.2,4.0,34,0.00,,---,0.00,VWS V14.01,2013-03-25 23:51:00,
2013-03-25 19:56:00,61.9,33.2,30.06,NNW,338,3.4,8.1,34,0.00,,---,0.00,VWS V14.01,2013-03-25 23:56:00,
2013-03-25 20:03:00,61.7,33.1,30.09,NNW,338,3.6,4.0,34,0.00,,---,0.00,VWS V14.01,2013-03-26 00:03:00,
2013-03-25 20:08:00,61.5,32.9,30.09,WNW,292,1.6,6.0,34,0.00,,---,0.00,VWS V14.01,2013-03-26 00:08:00,
2013-03-25 20:13:00,61.3,32.8,30.09,NNW,338,4.0,5.6,34,0.00,,---,0.00,VWS V14.01,2013-03-26 00:13:00,
2013-03-25 20:18:00,61.3,33.5,30.06,North,0,1.3,4.9,35,0.00,,---,0.00,VWS V14.01,2013-03-26 00:18:00,
2013-03-25 20:23:00,61.2,33.3,30.06,NNE,22,1.3,3.4,35,0.00,,---,0.00,VWS V14.01,2013-03-26 00:23:00,
2013-03-25 20:28:00,61.2,33.3,30.06,NNW,338,3.6,4.3,35,0.00,,---,0.00,VWS V14.01,2013-03-26 00:28:00,
2013-03-25 20:33:00,61.0,33.2,30.09,NE,45,2.7,7.6,35,0.00,,---,0.00,VWS V14.01,2013-03-26 00:33:00,
2013-03-25 20:38:00,61.0,33.2,30.09,North,0,3.4,3.4,35,0.00,,---,0.00,VWS V14.01,2013-03-26 00:38:00,
2013-03-25 20:43:00,60.8,33.0,30.09,West,270,1.3,1.3,35,0.00,,---,0.00,VWS V14.01,2013-03-26 00:43:00,
2013-03-25 20:49:00,60.6,33.5,30.09,North,0,4.7,4.9,36,0.00,,---,0.00,VWS V14.01,2013-03-26 00:49:00,
2013-03-25 20:55:00,60.6,33.5,30.09,NNW,338,2.7,2.9,36,0.00,,---,0.00,VWS V14.01,2013-03-26 00:55:00,
2013-03-25 21:00:00,60.6,34.2,30.12,North,0,3.1,3.1,37,0.00,,---,0.00,VWS V14.01,2013-03-26 01:00:00,
2013-03-25 21:06:00,60.4,34.1,30.12,WNW,292,6.3,6.3,37,0.00,,---,0.00,VWS V14.01,2013-03-26 01:06:00,
2013-03-25 21:13:00,60.4,34.1,30.12,NNE,22,4.0,4.0,37,0.00,,---,0.00,VWS V14.01,2013-03-26 01:13:00,
2013-03-25 21:19:00,60.3,33.9,30.12,NNE,22,2.0,3.6,37,0.00,,---,0.00,VWS V14.01,2013-03-26 01:19:00,
2013-03-25 21:24:00,60.3,34.6,30.12,NNE,22,3.4,3.6,38,0.00,,---,0.00,VWS V14.01,2013-03-26 01:24:00,
2013-03-25 21:29:00,60.3,34.6,30.12,NNW,338,1.6,3.4,38,0.00,,---,0.00,VWS V14.01,2013-03-26 01:29:00,
2013-03-25 21:34:00,60.3,34.6,30.12,WSW,248,4.9,4.9,38,0.00,,---,0.00,VWS V14.01,2013-03-26 01:34:00,
2013-03-25 21:39:00,60.3,34.6,30.12,WNW,292,2.9,7.2,38,0.00,,---,0.00,VWS V14.01,2013-03-26 01:39:00,
2013-03-25 21:44:00,60.3,33.9,30.12,WSW,248,1.1,6.0,37,0.00,,---,0.00,VWS V14.01,2013-03-26 01:44:00,
2013-03-25 21:49:00,60.3,34.6,30.12,NW,315,1.6,4.3,38,0.00,,---,0.00,VWS V14.01,2013-03-26 01:49:00,
2013-03-25 21:54:00,60.3,34.6,30.12,North,0,3.6,7.2,38,0.00,,---,0.00,VWS V14.01,2013-03-26 01:54:00,
2013-03-25 21:59:00,60.3,34.6,30.12,North,0,1.3,3.4,38,0.00,,---,0.00,VWS V14.01,2013-03-26 01:59:00,
2013-03-25 22:04:00,60.1,34.4,30.12,NNE,22,2.9,2.9,38,0.00,,---,0.00,VWS V14.01,2013-03-26 02:04:00,
2013-03-25 22:09:00,60.1,34.4,30.12,WNW,292,2.7,4.0,38,0.00,,---,0.00,VWS V14.01,2013-03-26 02:09:00,
2013-03-25 22:14:00,60.1,34.4,30.12,NE,45,2.0,2.5,38,0.00,,---,0.00,VWS V14.01,2013-03-26 02:14:00,
2013-03-25 22:19:00,60.1,34.4,30.12,NNW,338,4.3,4.3,38,0.00,,---,0.00,VWS V14.01,2013-03-26 02:19:00,
2013-03-25 22:24:00,60.1,35.1,30.12,NNE,22,2.7,2.7,39,0.00,,---,0.00,VWS V14.01,2013-03-26 02:24:00,
2013-03-25 22:29:00,60.1,35.1,30.12,North,0,4.3,4.3,39,0.00,,---,0.00,VWS V14.01,2013-03-26 02:29:00,
2013-03-25 22:34:00,60.1,35.1,30.12,North,0,3.1,3.1,39,0.00,,---,0.00,VWS V14.01,2013-03-26 02:34:00,
2013-03-25 22:39:00,59.9,34.9,30.12,North,0,3.1,3.1,39,0.00,,---,0.00,VWS V14.01,2013-03-26 02:39:00,
2013-03-25 22:44:00,59.9,34.9,30.12,WNW,292,4.0,4.0,39,0.00,,---,0.00,VWS V14.01,2013-03-26 02:44:00,
2013-03-25 22:50:00,59.9,34.9,30.12,NW,315,2.5,3.6,39,0.00,,---,0.00,VWS V14.01,2013-03-26 02:50:00,
2013-03-25 22:56:00,59.9,34.9,30.12,NNW,338,4.7,4.7,39,0.00,,---,0.00,VWS V14.01,2013-03-26 02:56:00,
2013-03-25 23:01:00,59.9,35.5,30.12,North,0,3.6,4.7,40,0.00,,---,0.00,VWS V14.01,2013-03-26 03:01:00,
2013-03-25 23:06:00,59.7,35.4,30.12,NW,315,4.3,5.6,40,0.00,,---,0.00,VWS V14.01,2013-03-26 03:06:00,
2013-03-25 23:11:00,59.7,36.0,30.12,WNW,292,3.4,3.4,41,0.00,,---,0.00,VWS V14.01,2013-03-26 03:11:00,
2013-03-25 23:16:00,59.7,36.0,30.12,NW,315,5.4,7.8,41,0.00,,---,0.00,VWS V14.01,2013-03-26 03:16:00,
2013-03-25 23:21:00,59.7,36.0,30.12,NNW,338,4.0,4.0,41,0.00,,---,0.00,VWS V14.01,2013-03-26 03:21:00,
2013-03-25 23:26:00,59.7,36.0,30.12,West,270,3.4,6.0,41,0.00,,---,0.00,VWS V14.01,2013-03-26 03:26:00,
2013-03-25 23:31:00,59.7,36.0,30.12,NNW,338,2.2,3.8,41,0.00,,---,0.00,VWS V14.01,2013-03-26 03:31:00,
2013-03-25 23:37:00,59.7,36.6,30.12,NNW,338,3.4,5.6,42,0.00,,---,0.00,VWS V14.01,2013-03-26 03:37:00,
2013-03-25 23:42:00,59.7,36.6,30.12,NNW,338,1.3,3.6,42,0.00,,---,0.00,VWS V14.01,2013-03-26 03:42:00,
2013-03-25 23:47:00,59.9,36.8,30.12,NNE,22,2.5,5.6,42,0.00,,---,0.00,VWS V14.01,2013-03-26 03:47:00,
2013-03-25 23:52:00,59.9,36.8,30.12,WNW,292,8.7,8.7,42,0.00,,---,0.00,VWS V14.01,2013-03-26 03:52:00,
2013-03-25 23:57:00,59.9,37.4,30.12,NNE,22,0.0,3.4,43,0.00,,---,0.00,VWS V14.01,2013-03-26 03:57:00,